Regional Weather Roundup
Issued by NWS Sterling, VA

Home | Current Version | Previous Version | Text Only | Print | Product List | Glossary Off
Versions: 1 2 3 4 5 6 7 8 9 10 11 12 13 14 15 16 17 18 19 20 21 22 23 24 25 26 27 28 29 30 31 32 33 34 35 36 37 38 39 40 41 42 43 44 45 46 47 48 49 50

000
ASUS41 KLWX 192111
RWRLWX

REGIONAL WEATHER ROUNDUP
NATIONAL WEATHER SERVICE BALTIMORE MD/WASHINGTON DC
500 PM EDT THU APR 19 2018

Note: "FAIR" indicates few or no clouds below 12,000 feet
with no significant weather and/or obstructions to visibility.
 TC=TEMPERATURE CELSIUS

 * =Non NWS site. Station does not report precipitation (e.g. rain,
    snow, etc.), thunder, or fog.

DCZ001-MDZ009-015-VAZ040>042-051-053>054-192200-
WASHINGTON METRO

CITY           SKY/WX    TMP DP  RH WIND       PRES   REMARKS
WASHINGTON NAT PTSUNNY   54  27  35 NW18G37   29.97R
DULLES         FAIR      50  28  42 NW33G45   29.97R
ANDREWS AFB    PTSUNNY   51  27  39 NW24G33   29.94R
FT BELVOIR     FAIR      54  28  37 NW22G35   29.97R
QUANTICO       PTSUNNY   55  30  38 NW21G37   29.98R
COLLEGE PARK*  CLOUDY    50  27  40 W18G29    29.97R
LEESBURG*      PTSUNNY   50  32  50 NW29G38   30.01R
MANASSAS*      FAIR      53  30  41 NW30G39   30.00R
GAITHERSBURG*  CLOUDY    46  26  45 NW23G32   29.99R

$$

MDZ006>007-011-014-192200-
BALTIMORE METRO

CITY           SKY/WX    TMP DP  RH WIND       PRES   REMARKS
BWI AIRPORT    PTSUNNY   49  28  44 NW16G32   29.94R
MD SCIENCE CTR   N/A     51  27  39 MISG      29.95R
MARTIN STATE   PTSUNNY   52  30  43 W25G38    29.94R
ANNAPOLIS      PTSUNNY   53  31  42 NW22G37   29.93R
FORT MEADE*    CLOUDY    50  28  43 NW20G31   29.98R

$$

MDZ012-015-019>023-192200-
MARYLAND EASTERN SHORE

CITY           SKY/WX    TMP DP  RH WIND       PRES   REMARKS
OCEAN CITY     CLOUDY    53  40  61 NW10G22   29.87R
SALISBURY      CLOUDY    54  39  57 NW13G28   29.87R
BAY BRIDGE AP* PTSUNNY   52  32  46 NW23G32   29.93R
CAMBRIDGE*       N/A     55  34  44 NW24G36   29.91R
EASTON*        PTSUNNY   54  32  43 NW25G36   29.94R

$$

MDZ017>025-192200-
SOUTHERN MARYLAND

CITY           SKY/WX    TMP DP  RH WIND       PRES   REMARKS
PATUXENT RIVER FAIR      59  33  37 NW26G36   29.91R
ST INIGOES     FAIR      57  34  41 W18G39    29.90R
LEONARDTOWN*   FAIR      54  30  40 W20G30    29.94R

$$

MDZ003>005-192200-
NORTH CENTRAL MARYLAND

CITY           SKY/WX    TMP DP  RH WIND       PRES   REMARKS
FREDERICK*     PTSUNNY   48  21  34 NW20G29   30.03R
HAGERSTOWN APT CLOUDY    45  27  49 NW23G35   30.00R
WESTMINSTER*   CLOUDY    45  27  49 NW20G32   29.97R

$$

MDZ501>502-192200-
WESTERN MARYLAND

CITY           SKY/WX    TMP DP  RH WIND       PRES   REMARKS
OAKLAND*       CLOUDY    30  27  86 W10G23    30.00R WCI  21
CUMBERLAND*    CLOUDY    43  28  56 NW8G20    30.11R

$$

VAZ025>031-192200-
SHENANDOAH VALLEY

CITY           SKY/WX    TMP DP  RH WIND       PRES   REMARKS
WINCHESTER*    CLOUDY    43  28  56 NW15G26   30.06R
FRONT ROYAL*   CLOUDY    45  28  53 NW13G22   30.02R
LURAY*         PTSUNNY   50  30  46 W7G18     30.02R
NEW MARKET*    CLOUDY    47  26  43 N13G23    30.03R
STAUNTON*      FAIR      51  29  44 NW16G22   30.04R
WAYNESBORO*    PTSUNNY   48  26  42 NW17G25   30.00S

$$

WVZ021-048>050-054>055-192200-
EASTERN WEST VIRGINIA PANHANDLE

CITY           SKY/WX    TMP DP  RH WIND       PRES   REMARKS
MARTINSBURG    CLOUDY    44  26  49 NW18G30   30.03R
PETERSBURG*    CLOUDY    42  28  58 NW10G18   30.09R

$$

VAZ036>039-050-192200-
CENTRAL FOOTHILLS

CITY           SKY/WX    TMP DP  RH WIND       PRES   REMARKS
CHARLOTTESVILL PTSUNNY   56  28  34 NW15G28   30.00R
CULPEPER*      CLOUDY    55  26  32 NW16G25   30.00R
ORANGE*        FAIR      54  30  40 NW6G16    29.99R
GORDONSVILLE*  FAIR      55  29  37 NW20G29   29.98R
WARRENTON*     FAIR      55  26  33 NW20G25   29.98R

$$

VAZ055>057-192200-
NORTH AND CENTRAL PIEDMONT

CITY           SKY/WX    TMP DP  RH WIND       PRES   REMARKS
FREDERICKSBRG* PTSUNNY   58  32  38 NW14G28   29.97R
STAFFORD*      FAIR      56  31  39 NW17G28   30.01R

$$

NCZ024-NYZ072-PAZ021-071-VAZ022-071-192200-
OTHER REGIONAL OBSERVATIONS

CITY           SKY/WX    TMP DP  RH WIND       PRES   REMARKS
NEW YORK CITY  CLOUDY    45  35  68 NW9       29.82R
PHILADELPHIA   CLOUDY    47  30  51 NW23G30   29.88R
PITTSBURGH     PTSUNNY   42  27  55 NW23G31   30.09S WCI  33
ROANOKE        CLOUDY    46  29  51 NW15G29   30.12R
RICHMOND       FAIR      62  30  29 NW22G36   29.93R
RALEIGH        FAIR      62  35  36 NW13G29   29.98R

$$

ANZ530>537-192200-
MARINE OBSERVATIONS

STATION/POSITION TIME  TEMP    WIND        PRES
                       AIR SEA DIR/SP/G
                 (UTC) (F)     (DEG/KT/KT) (MB)
THOMAS PT LIGHT  2100   50 50  310/ 23/ 28 1014.7R
BALT KEY BRIDGE  2048   49     310/ 25/ 28 1013.0R
COVE POINT       2048   53     320/ 18/ 35 1013.4R
LEWISETTA        2048   56 55  340/ 18/ 28 1012.8R
SOLOMONS ISLAND  2048   54 52  320/ 14/ 31 1012.8R
PINEY POINT      2048          340/ 28/ 32   N/A

$$




USA.gov is the U.S. government's official web portal to all federal, state and local government web resources and services.